User: anonymous   Login
Location: Newark
(52.1031°N, 9.3600°E)
Time: 17:54:37
(UTC+00:00)
Language:

nSIGHT-1 - Orbit

View from above orbital plane
View from above orbital plane
View from above satellite
View from above satellite

Ground track
Ground track

The orbit data is extracted from the following two-line orbital elements,

1 42726U 98067MF  19349.04782756  .00039149  00000-0  19565-3 0  9991
2 42726  51.6323 105.8546 0002518 175.5574 184.5451 15.81417904146090
Epoch (UTC): 15 December 2019 01:08:52
Eccentricity: 0.0002518
inclination: 51.6323°
perigee height: 325 km
apogee height: 328 km
right ascension of ascending node: 105.8546°
argument of perigee: 175.5574°
revolutions per day: 15.81417904
mean anomaly at epoch: 184.5451°
orbit number at epoch: 14609

The dashed part of the orbit path shows where the satellite is in the earth's shadow,  

DLR